Location: Boda
(47.1872°N, 9.5454°E)
Time: 09:34:21
(UTC+00:00)

Cosmos 371 Rocket - Pass Details

Date: 14 May 2021
Orbit: 684 x 699 km, 74.0° (Epoch: 16 June)

Event Time Altitude Azimuth Distance (km) Brightness Sun altitude
Exits shadow 01:14:24 41° 208° (SSW) 1,015 3.6 -19.2°
Maximum altitude 01:16:08 84° 292° (WNW) 708 3.2 -19.0°
Drops below altitude 10° 01:21:03 10° 21° (NNE) 2,171 7.1 -18.6°
Sets 01:23:23 0° 22° (NNE) 3,094 8.3 -18.4°
